Simultaneous Nadir Overpasses (SNOs) Predictions

Prediction of SNOs between GOES-14 and NPP Satellite Orbit:

Table of predicted SNOs for the next 14.0 days since TLE Epoch: 2/17/2024
Index Date Time (GOES-14) GOES-14 Lat,Lon NPP Lat,Lon Distance(km) Time Diff (sec)
1 02/17/2024 20:49:20 -0.03,-108.43 -0.51,-110.57 243.73 80
2 02/18/2024 20:27:54 -0.03,-108.43 0.49,-106.03 272.26 80
3 02/20/2024 08:52:22 0.04,-108.40 0.67,-111.30 330.10 80
4 02/21/2024 08:30:56 0.03,-108.40 -0.33,-106.77 185.76 80
5 02/22/2024 20:55:31 -0.05,-108.40 -0.84,-112.07 417.44 80
6 02/23/2024 20:34:06 -0.04,-108.40 0.16,-107.53 98.86 80
7 02/26/2024 08:37:07 0.04,-108.38 0.03,-108.25 13.72 80
8 02/28/2024 20:42:57 -0.05,-108.38 -0.18,-109.02 73.18 80
9 02/29/2024 20:21:31 -0.04,-108.38 0.84,-104.49 443.13 80
